Helicity
67 58 52 52 48 42 68 75 85 93 96 82 86 102 104 72 61 27 42 81 33 43 41 132 133 128 146 187 218 222 276 189 198 150 83 29 88 118 109 143 180 116 68 52 202
45 51 41 60 61 81 87 80 74 71 96 89 77 96 98 89 35 7 67 60 37 22 52 69 103 131 196 176 234 288 269 159 156 155 72 112 125 105 148 235 213 205 169 160 198
58 83 82 47 40 43 62 65 63 65 69 80 89 93 101 92 -26 -50 2 47 74 18 65 76 115 123 181 195 221 257 180 208 156 148 87 67 119 168 130 218 189 150 137 166 139
42 66 72 73 87 82 84 75 61 56 53 53 68 96 117 130 121 102 105 401 298 138 87 97 114 158 187 202 198 190 120 125 157 169 136 72 156 198 146 145 91 189 168 129 82
69 94 85 89 81 86 86 72 60 47 44 52 64 90 120 117 92 40 119 87 266 226 75 119 105 124 116 150 200 129 165 113 159 182 127 96 118 171 169 134 134 186 132 76 74
88 88 82 86 73 74 60 53 39 30 28 32 44 29 123 -4 109 61 8 -87 71 199 96 104 169 142 171 170 142 123 62 96 110 152 94 95 106 112 163 112 154 158 94 80 90
94 96 97 82 69 55 50 31 16 11 5 4 6 35 120 106 102 49 155 87 42 121 154 92 81 153 169 132 136 150 91 44 103 85 113 66 123 121 149 144 121 113 123 93 120
84 90 85 69 43 44 33 18 2 -2 -13 -10 -3 48 129 105 50 50 100 144 91 115 124 110 90 94 150 211 165 108 147 128 88 121 148 148 53 104 129 172 154 140 152 133 116
79 73 64 44 37 41 28 11 2 -14 -21 13 46 105 109 40 48 23 168 147 124 188 97 54 105 136 139 163 166 160 148 141 174 131 224 203 41 74 111 145 167 141 146 122 142
69 65 49 36 39 35 18 11 -9 7 41 29 70 125 48 81 13 17 49 130 160 187 205 130 166 164 169 182 142 186 186 149 154 174 171 164 120 97 124 142 126 132 127 142 143
58 45 45 34 21 19 54 66 37 34 93 122 84 113 11 51 37 4 42 55 116 207 216 144 180 163 107 152 167 188 174 226 149 177 235 162 120 102 155 161 132 136 126 126 142
43 40 44 27 6 11 84 84 72 84 76 121 88 58 8 1 60 40 72 38 108 207 212 292 171 47 112 161 162 149 156 186 185 189 173 152 99 119 118 147 129 113 146 153 163
41 39 34 7 4 76 71 64 53 69 71 35 28 10 18 78 64 70 -11 48 88 168 224 236 170 98 99 103 123 115 90 193 202 236 257 166 124 136 104 123 146 112 146 193 181
26 23 21 31 90 50 43 62 59 82 95 32 14 11 13 66 49 18 24 87 53 111 117 201 73 181 123 93 137 134 102 261 176 210 239 222 125 106 83 109 140 150 152 157 179
31 25 28 44 96 70 65 54 54 78 154 33 18 52 7 53 33 40 103 145 61 100 160 165 120 -0 174 45 112 143 156 138 237 321 325 275 173 87 113 113 110 126 184 165 157
19 21 23 81 69 76 58 56 80 128 111 22 36 37 11 2 54 35 87 99 112 -37 90 139 115 -121 69 127 107 186 125 169 236 288 239 248 224 94 139 118 146 186 143 168 164
21 19 64 74 51 56 53 74 123 160 47 7 49 57 23 71 13 22 29 32 33 -58 -49 70 92 -126 -156 98 153 206 327 274 207 387 297 275 224 138 81 81 108 105 121 142 156
21 38 50 55 37 42 63 84 158 54 27 71 74 44 24 12 3 34 -28 -10 58 42 -86 150 188 36 -38 74 130 203 284 231 165 229 281 241 173 151 93 66 115 107 119 133 143
45 53 59 28 29 54 70 108 68 60 49 43 46 34 69 37 26 56 -13 -20 10 17 -23 107 105 187 88 100 112 92 240 363 395 429 349 285 230 194 124 131 61 122 119 80 90
66 61 32 15 31 56 65 33 52 96 60 48 20 35 54 62 96 105 -15 -6 -72 -27 -14 -10 223 273 296 220 191 70 178 269 357 245 256 179 107 87 101 92 163 74 50 93 87
80 81 32 7 43 55 74 23 37 86 49 42 50 51 47 60 185 141 79 -4 54 -24 -3 -4 25 281 259 261 202 241 204 194 195 211 216 119 78 28 25 74 26 121 86 58 109
70 98 37 35 89 61 62 53 56 71 64 25 36 22 18 90 58 69 121 94 76 41 -8 -7 37 259 255 232 220 228 171 198 191 222 186 132 148 88 86 120 144 70 84 108 63
75 52 34 56 121 66 62 37 48 60 51 16 12 1 10 20 26 40 115 48 55 24 3 -3 70 426 313 275 267 224 218 217 200 222 245 285 216 164 105 101 114 101 167 160 108
74 73 43 39 17 59 48 31 48 54 45 36 11 -18 3 11 20 31 86 36 52 57 70 12 33 183 182 160 215 213 237 172 172 253 198 159 149 222 265 166 129 122 130 181 150
72 64 58 76 62 72 51 51 29 12 43 28 16 9 29 20 31 30 38 75 -3 62 34 37 64 113 128 190 143 197 185 209 178 155 143 162 116 133 220 227 210 103 93 96 153
91 100 54 53 40 51 40 44 40 63 40 6 26 63 52 25 23 58 87 64 4 102 42 29 75 78 95 94 89 114 118 138 200 195 166 149 83 -2 -29 17 74 99 64 54 114
47 49 70 58 64 72 47 28 51 51 26 42 8 44 33 25 22 73 67 53 74 103 68 47 61 75 103 107 124 133 96 72 131 110 115 147 69 -61 -36 -20 6 -22 -15 3 72
Wind_Speed
68 66 65 63 59 55 58 59 59 65 70 72 73 75 72 72 77 75 79 60 51 58 53 46 44 44 47 53 48 48 72 90 83 77 61 49 59 56 50 49 47 48 41 35 22
66 68 66 65 62 62 63 65 65 65 72 71 73 75 76 75 79 90 78 77 75 67 49 47 48 49 58 58 57 63 79 87 66 63 58 55 54 56 56 53 56 49 37 16 22
68 71 70 66 62 58 67 64 65 67 70 72 73 74 74 73 77 75 56 55 66 63 60 49 44 50 65 58 65 72 92 78 69 59 54 56 58 54 61 67 59 49 28 23 24
67 69 70 67 66 68 70 66 71 72 68 67 71 73 73 63 58 42 19 53 56 57 54 54 51 57 66 73 66 81 90 73 64 52 56 55 57 57 59 59 55 38 28 26 28
69 69 70 66 67 76 77 73 75 73 69 67 71 73 69 58 51 69 72 62 62 51 54 50 55 62 77 70 69 88 71 82 70 64 63 61 65 64 64 55 42 35 32 31 29
69 72 68 68 68 80 73 76 77 73 67 67 71 69 67 67 61 69 72 65 58 53 62 55 54 60 70 69 78 72 90 66 78 75 67 71 70 58 55 46 41 36 37 37 33
72 72 70 74 74 76 76 81 78 72 68 71 73 68 62 73 77 80 80 77 69 63 62 65 59 48 57 78 72 79 78 81 71 75 83 58 81 78 58 49 49 47 42 40 40
74 71 71 73 77 75 82 84 81 71 66 67 62 59 64 56 70 83 83 85 80 78 74 74 68 68 69 63 65 85 73 82 85 75 73 68 98 73 56 53 58 54 52 46 43
75 73 72 77 78 78 86 87 76 66 63 56 48 43 65 51 56 63 65 87 81 72 66 67 65 71 70 83 78 75 97 93 72 79 66 68 91 80 56 56 59 60 57 54 47
72 73 73 79 77 82 87 76 63 58 52 45 37 41 44 49 51 43 41 50 66 69 74 68 67 74 78 93 107 84 96 90 87 68 74 84 83 62 65 59 61 61 61 59 53
74 73 75 77 76 80 74 66 72 60 57 50 46 51 60 52 59 57 50 54 59 67 86 74 82 98 94 87 82 78 88 88 85 61 70 91 89 78 66 68 73 70 68 68 63
70 73 75 74 74 74 61 60 66 53 70 50 34 32 32 39 61 76 55 62 64 86 77 77 100 94 78 79 83 87 83 89 69 68 70 82 95 82 79 82 78 81 75 72 66
71 71 72 73 69 55 59 52 56 50 52 46 40 39 43 38 53 60 44 59 70 83 86 94 86 78 82 81 91 97 74 77 78 63 63 69 91 86 86 86 81 79 77 71 65
72 70 69 70 57 58 51 50 55 43 53 46 44 38 47 47 49 38 40 47 59 75 79 94 97 76 86 94 81 87 79 67 65 68 87 66 100 95 95 90 92 88 77 73 70
71 69 65 61 53 55 50 51 45 41 59 52 41 42 73 43 62 47 17 45 60 59 71 96 90 83 88 107 87 70 81 68 67 70 72 78 85 81 73 98 100 93 82 72 65
68 66 63 54 47 43 49 46 42 52 49 49 49 64 60 52 44 41 25 30 45 60 70 97 76 74 83 73 79 71 67 65 61 66 87 83 88 86 76 83 83 81 86 79 68
69 64 56 47 53 49 48 47 55 57 50 47 55 63 63 55 53 36 31 29 45 61 77 80 99 73 68 82 77 64 64 80 78 80 80 74 83 97 68 70 72 78 84 77 71
65 57 48 47 50 48 50 53 62 50 46 41 42 32 43 54 52 44 33 37 43 43 55 67 100 88 67 79 69 75 77 76 86 78 72 52 86 88 85 68 61 66 69 75 77
55 52 45 48 49 44 51 62 55 50 45 44 39 37 44 52 48 39 33 37 41 43 43 49 82 78 74 66 58 67 78 49 49 51 61 66 64 61 74 72 67 68 69 75 75
55 51 46 52 44 47 53 55 49 40 40 38 34 37 46 52 44 40 32 36 47 47 42 36 52 63 70 66 62 67 49 62 59 74 75 65 70 77 60 64 64 69 73 73 63
51 50 44 54 42 51 56 51 45 40 40 32 29 30 44 48 38 28 30 31 34 41 39 38 35 59 62 78 84 69 66 52 49 50 65 67 65 51 65 67 64 70 66 68 66
50 52 47 49 52 48 51 44 39 43 42 33 28 33 44 47 37 34 36 30 31 34 37 39 39 56 59 56 63 65 71 65 74 69 59 56 55 43 46 56 64 69 62 57 56
56 47 44 47 54 53 47 42 38 43 41 39 32 41 41 44 37 37 38 40 35 34 37 31 32 50 54 55 57 70 62 57 56 56 63 61 57 38 34 32 37 43 48 50 47
52 53 47 48 45 49 49 43 47 38 34 42 33 41 47 43 41 38 41 39 41 34 32 31 27 32 52 62 57 71 70 66 66 68 64 60 46 36 31 29 28 33 38 42 41
52 48 46 48 48 51 45 40 47 46 35 37 36 50 49 44 45 40 43 44 34 33 30 29 35 34 33 31 46 63 64 69 73 71 74 65 58 44 36 33 32 33 33 36 39
52 50 46 42 43 48 46 44 45 44 32 35 44 56 51 48 44 51 48 43 34 40 35 35 28 30 35 32 38 49 55 65 63 65 68 64 72 48 41 36 36 34 32 32 37
44 42 43 40 44 43 44 45 40 42 33 28 56 57 50 45 60 60 54 52 50 43 37 34 34 31 33 28 26 48 60 59 58 62 66 75 73 47 44 42 44 38 34 31 32
Wind_Direction
353 352 351 350 349 347 345 341 340 334 324 318 312 306 306 300 291 285 273 278 280 274 270 274 255 249 250 247 246 250 249 246 246 244 251 253 251 250 255 246 247 252 261 265 213
354 350 349 349 347 344 340 337 335 332 323 320 313 306 300 300 292 274 273 272 270 266 264 260 254 246 246 247 245 242 246 243 249 247 251 255 255 251 247 240 246 252 264 214 206
353 351 350 348 348 346 336 337 335 331 326 320 314 308 301 299 294 285 283 276 270 261 257 259 257 248 245 246 244 244 245 247 250 254 257 256 255 256 246 240 242 245 236 213 211
353 352 350 350 348 342 338 337 332 328 326 322 315 309 301 299 291 299 305 292 285 266 252 252 250 245 246 242 244 247 246 248 249 254 252 254 257 256 245 249 246 238 219 206 213
353 352 350 349 347 339 335 334 330 327 325 321 314 307 302 293 256 275 274 289 283 276 245 246 246 243 242 242 245 245 252 246 248 253 254 255 255 253 249 253 242 232 220 221 222
353 351 351 349 347 337 340 335 330 328 326 320 312 306 299 257 291 282 278 280 279 278 250 244 254 248 250 249 242 251 246 253 246 248 253 249 253 253 250 248 235 224 228 230 228
352 351 351 347 345 342 340 334 332 330 326 318 308 305 297 283 285 279 273 269 269 269 260 252 249 247 249 246 251 248 248 247 249 246 243 255 248 245 249 243 235 233 234 235 237
352 352 351 350 344 344 340 336 334 331 326 319 312 306 297 301 290 277 271 266 264 261 259 256 255 253 250 255 252 244 249 243 243 244 244 243 242 246 246 242 238 237 238 238 240
352 352 351 348 345 344 340 338 338 335 334 331 322 309 303 308 296 283 274 261 262 259 256 256 253 249 247 243 244 241 239 239 246 239 242 237 243 244 244 241 239 239 239 240 241
353 353 351 346 348 344 343 345 347 349 355 356 350 330 314 306 303 294 289 277 258 254 250 247 245 243 240 234 234 238 236 239 239 242 237 237 241 245 241 241 241 241 242 241 240
353 352 350 348 348 348 351 355 353 354 351 340 327 317 307 309 301 288 280 277 265 246 238 237 238 235 235 234 238 241 241 240 241 244 238 238 239 242 244 243 243 243 242 242 242
354 352 351 351 350 352 1 2 359 356 345 349 351 349 338 324 299 278 276 267 257 242 238 239 235 237 241 236 237 237 241 237 244 239 243 241 240 243 244 244 245 244 243 242 241
354 353 353 354 355 6 3 6 4 6 355 358 5 1 352 348 319 293 276 258 250 243 236 232 237 240 237 237 236 235 237 234 236 238 246 246 244 243 244 245 245 245 245 243 240
354 355 355 356 6 5 7 7 5 13 356 0 4 2 357 345 324 322 293 258 250 245 237 236 237 242 233 234 234 234 237 237 236 235 237 241 242 243 243 244 243 243 244 244 241
357 358 360 2 3 6 7 6 11 18 354 3 7 359 329 345 315 322 319 261 247 242 234 230 232 236 236 231 233 239 234 238 240 240 238 241 245 247 247 241 240 241 243 244 244
359 0 1 9 11 13 7 12 22 7 2 1 1 348 343 344 343 331 315 284 256 245 245 235 239 241 234 237 233 237 234 235 245 241 241 238 241 246 245 244 246 245 244 244 245
360 3 7 16 9 10 15 19 9 7 7 7 1 352 325 345 331 334 284 269 251 239 241 239 229 237 234 234 231 229 220 230 238 235 243 239 241 241 250 249 248 245 244 245 246
0 6 13 18 13 18 20 18 9 13 12 10 10 15 11 342 327 293 280 264 242 247 254 226 223 225 228 229 228 227 228 234 233 233 238 241 242 243 245 253 250 250 249 248 248
6 10 18 15 16 25 22 14 15 15 17 13 18 26 12 342 315 299 280 261 241 234 247 244 229 226 227 228 226 228 229 235 236 243 238 242 252 258 248 249 250 249 250 249 252
7 10 16 15 26 27 23 18 20 26 18 25 32 26 6 318 309 309 275 262 238 238 233 261 232 223 225 227 232 230 225 231 238 235 238 245 250 247 250 249 249 250 255 250 252
10 10 19 15 31 23 17 22 25 28 27 37 38 30 343 311 288 291 302 265 267 245 248 250 256 225 222 227 224 227 229 237 236 241 238 242 250 263 253 253 254 255 260 251 249
13 9 17 21 15 21 17 21 26 26 33 43 32 358 321 294 281 288 298 290 284 264 255 257 268 223 224 234 231 234 233 236 236 239 246 249 253 270 270 259 258 257 257 254 250
8 11 21 23 12 15 20 24 27 26 31 33 21 296 290 306 294 288 293 290 293 273 252 263 272 223 226 233 235 232 236 238 241 241 240 243 248 270 280 280 272 261 257 255 252
10 7 13 22 25 20 18 23 20 29 34 23 7 297 296 302 292 279 295 301 292 280 276 258 264 247 234 235 233 231 233 236 237 237 235 241 245 258 271 281 287 277 267 258 250
12 11 16 11 15 14 20 24 17 19 29 25 5 308 296 294 292 291 302 302 292 300 275 273 256 252 254 253 242 235 236 236 236 239 238 240 242 252 268 280 287 292 285 264 251
10 11 13 14 17 16 21 22 19 18 25 23 2 298 287 285 288 282 283 292 278 291 273 265 270 261 260 260 249 239 235 240 237 239 243 242 243 255 269 277 284 288 291 274 255
17 16 12 12 13 16 19 19 17 17 26 21 327 303 296 289 280 266 257 256 258 284 275 269 264 260 257 262 255 245 235 238 238 241 241 240 241 251 262 271 277 276 282 283 262